Simultaneous Nadir Overpasses (SNOs) Predictions

Prediction of SNOs between LANDSAT-8 and NOAA-19 Satellite Orbit:

Table of predicted SNOs for the next 14.0 days since TLE Epoch: 3/27/2015
Index Date (LANDSAT-8) Time (LANDSAT-8) Lat,Lon (LANDSAT-8) SZA (LANDSAT-8 ) Date (NOAA-19) Time (NOAA-19) Lat,Lon (NOAA-19) SZA (NOAA-19 ) Distance(km) Time Diff (sec)
1 03/29/2015 16:07:00 73.01, -60.89 69.48 03/29/2015 16:06:20 72.99, -60.86 69.47 2.29 40
2 03/29/2015 16:56:30 -72.88, 106.50 110.66 03/29/2015 16:57:22 -72.89, 106.59 110.65 3.14 52
3 03/31/2015 20:51:07 73.45,-131.07 69.07 03/31/2015 20:49:58 73.54,-132.97 69.18 60.96 69
4 03/31/2015 21:40:44 -72.96, 35.57 111.44 03/31/2015 21:40:51 -72.98, 35.57 111.41 2.51 7
5 04/03/2015 02:24:58 -73.01, -35.38 112.23 04/03/2015 02:24:19 -73.03, -35.37 112.21 1.53 39
6 04/03/2015 03:14:25 72.92, 132.08 67.68 04/03/2015 03:15:15 72.93, 132.11 67.68 1.10 50
7 04/05/2015 07:09:05 -73.43,-105.62 112.65 04/05/2015 07:07:55 -73.48,-107.24 112.59 51.85 70
8 04/05/2015 07:58:38 73.02, 61.20 66.93 04/05/2015 07:58:43 73.01, 61.10 66.93 3.50 5
9 04/07/2015 12:42:52 73.05, -9.80 66.13 04/07/2015 12:42:10 73.05, -9.81 66.13 0.37 42
10 04/07/2015 13:32:22 -72.93, 157.60 114.00 04/07/2015 13:33:13 -72.92, 157.70 114.01 3.47 51
11 04/09/2015 17:26:56 73.60, -79.75 65.87 04/09/2015 17:25:48 73.64, -82.01 65.91 71.17 68
12 04/09/2015 18:16:35 -73.01, 86.67 114.75 04/09/2015 18:16:41 -73.01, 86.69 114.75 0.48 6




NCC Satellite Simultaneous Nadir Overpasses (SNOs) Prediction Service
